When you browse on this site, cookies collect data to enhance your experience and personalize the content and advertising you see.
Visit our Privacy Policy to learn more. By continuing to use the site, you agree to this use of cookies and data.
  • In Austria
  • List of Countries
  • For 7 days
  • Water Temperature
  • Satellite Maps
  • Weather Map
  • News
  • Weather Widgets
  • user-avatar
    Login

    Hourly Weather Puhovichi

    Today, 16 July, Tuesday

    Time Temperature Precipitation Wind Pressure Humidity
    00:00 +13°C° 0 mm 1 mps 745 mmHg 91%
    01:00 +13°C° 0 mm 1 mps 745 mmHg 92%
    02:00 +12°C° 0 mm 1 mps 746 mmHg 91%
    03:00 +12°C° 0 mm 1 mps 745 mmHg 90%
    04:00 +12°C° 0 mm 1 mps 745 mmHg 90%
    05:00 +12°C° 0 mm 1 mps 745 mmHg 90%
    06:00 +14°C° 0 mm 1 mps 745 mmHg 84%
    07:00 +16°C° 0 mm 1 mps 745 mmHg 78%
    08:00 +18°C° 0 mm 2 mps 745 mmHg 73%
    09:00 +19°C° 0.2 mm 2 mps 745 mmHg 67%
    10:00 +21°C° 0.2 mm 2 mps 745 mmHg 61%
    11:00 +23°C° 0.2 mm 2 mps 744 mmHg 55%
    12:00 +23°C° 0.2 mm 2 mps 744 mmHg 55%
    13:00 +24°C° 0.2 mm 3 mps 744 mmHg 56%
    14:00 +24°C° 0.2 mm 3 mps 743 mmHg 56%
    15:00 +22°C° 0.3 mm 3 mps 743 mmHg 61%
    16:00 +22°C° 0.3 mm 3 mps 743 mmHg 67%
    17:00 +21°C° 0.3 mm 2 mps 743 mmHg 72%
    18:00 +20°C° 0.3 mm 2 mps 743 mmHg 77%
    19:00 +18°C° 0.3 mm 2 mps 743 mmHg 82%
    20:00 +17°C° 0.3 mm 2 mps 742 mmHg 87%
    21:00 +16°C° 0.2 mm 2 mps 743 mmHg 89%
    22:00 +16°C° 0.2 mm 2 mps 743 mmHg 91%
    23:00 +15°C° 0.2 mm 2 mps 743 mmHg 94%

    Tomorrow, 17 July, Wednesday

    Time Temperature Precipitation Wind Pressure Humidity
    00:00 +13°C° 0.3 mm 3 mps 743 mmHg 94%
    01:00 +13°C° 0.3 mm 3 mps 743 mmHg 94%
    02:00 +12°C° 0.3 mm 3 mps 743 mmHg 95%
    03:00 +11°C° 0 mm 3 mps 742 mmHg 96%
    04:00 +11°C° 0 mm 3 mps 742 mmHg 97%
    05:00 +10°C° 0 mm 2 mps 742 mmHg 98%
    06:00 +11°C° 0 mm 3 mps 742 mmHg 95%
    07:00 +12°C° 0 mm 3 mps 742 mmHg 92%
    08:00 +14°C° 0 mm 3 mps 742 mmHg 90%
    09:00 +16°C° 0.3 mm 3 mps 742 mmHg 85%
    10:00 +17°C° 0.3 mm 3 mps 742 mmHg 80%
    11:00 +18°C° 0.3 mm 3 mps 742 mmHg 74%
    12:00 +18°C° 0.7 mm 4 mps 742 mmHg 72%
    13:00 +19°C° 0.7 mm 4 mps 742 mmHg 69%
    14:00 +19°C° 0.7 mm 4 mps 742 mmHg 66%
    15:00 +19°C° 0.3 mm 4 mps 741 mmHg 69%
    16:00 +18°C° 0.3 mm 3 mps 741 mmHg 71%
    17:00 +18°C° 0.3 mm 3 mps 741 mmHg 74%
    18:00 +17°C° 0.3 mm 2 mps 741 mmHg 80%
    19:00 +15°C° 0.3 mm 2 mps 741 mmHg 85%
    20:00 +14°C° 0.3 mm 1 mps 741 mmHg 91%
    21:00 +14°C° 0 mm 1 mps 741 mmHg 92%
    22:00 +13°C° 0 mm 1 mps 742 mmHg 93%
    23:00 +12°C° 0 mm 1 mps 742 mmHg 94%

    Day after tomorrow, 18 July, Thursday

    Time Temperature Precipitation Wind Pressure Humidity
    00:00 +12°C° 0 mm 2 mps 742 mmHg 95%
    01:00 +12°C° 0 mm 2 mps 742 mmHg 96%
    02:00 +10°C° 0 mm 2 mps 742 mmHg 97%
    03:00 +10°C° 0 mm 2 mps 742 mmHg 97%
    04:00 +10°C° 0 mm 2 mps 742 mmHg 97%
    05:00 +10°C° 0 mm 2 mps 742 mmHg 98%
    06:00 +11°C° 0 mm 3 mps 742 mmHg 97%
    07:00 +12°C° 0 mm 3 mps 742 mmHg 95%
    08:00 +13°C° 0 mm 4 mps 743 mmHg 94%
    09:00 +14°C° 0 mm 4 mps 743 mmHg 91%
    10:00 +14°C° 0 mm 4 mps 743 mmHg 87%
    11:00 +15°C° 0 mm 4 mps 743 mmHg 84%
    12:00 +17°C° 0.1 mm 4 mps 743 mmHg 83%
    13:00 +17°C° 0.1 mm 4 mps 743 mmHg 82%
    14:00 +18°C° 0.1 mm 4 mps 743 mmHg 81%
    15:00 +18°C° 0.3 mm 4 mps 743 mmHg 80%
    16:00 +19°C° 0.3 mm 3 mps 743 mmHg 79%
    17:00 +19°C° 0.3 mm 3 mps 744 mmHg 78%
    18:00 +18°C° 0.2 mm 3 mps 744 mmHg 84%
    19:00 +17°C° 0.2 mm 2 mps 744 mmHg 89%
    20:00 +16°C° 0.2 mm 2 mps 744 mmHg 94%
    21:00 +16°C° 0 mm 2 mps 744 mmHg 95%
    22:00 +15°C° 0 mm 2 mps 744 mmHg 96%
    23:00 +15°C° 0 mm 2 mps 745 mmHg 97%

    19 July, Friday

    Time Temperature Precipitation Wind Pressure Humidity
    00:00 +14°C° 0 mm 2 mps 745 mmHg 97%
    01:00 +14°C° 0 mm 2 mps 745 mmHg 97%
    02:00 +12°C° 0 mm 3 mps 745 mmHg 97%
    03:00 +12°C° 0 mm 3 mps 746 mmHg 96%
    04:00 +12°C° 0 mm 3 mps 746 mmHg 96%
    05:00 +12°C° 0 mm 3 mps 746 mmHg 96%
    06:00 +13°C° 0 mm 3 mps 746 mmHg 90%
    07:00 +16°C° 0 mm 3 mps 747 mmHg 84%
    08:00 +18°C° 0 mm 3 mps 747 mmHg 78%
    09:00 +19°C° 0 mm 3 mps 747 mmHg 70%
    10:00 +21°C° 0 mm 4 mps 747 mmHg 62%
    11:00 +23°C° 0 mm 4 mps 747 mmHg 54%
    12:00 +23°C° 0 mm 4 mps 747 mmHg 53%
    13:00 +25°C° 0 mm 4 mps 747 mmHg 52%
    14:00 +25°C° 0 mm 4 mps 747 mmHg 50%
    15:00 +24°C° 0.2 mm 3 mps 747 mmHg 56%
    16:00 +24°C° 0.2 mm 3 mps 747 mmHg 61%
    17:00 +22°C° 0.2 mm 3 mps 747 mmHg 67%
    18:00 +21°C° 0.1 mm 2 mps 748 mmHg 73%
    19:00 +19°C° 0.1 mm 2 mps 748 mmHg 80%
    20:00 +19°C° 0.1 mm 1 mps 748 mmHg 86%
    21:00 +18°C° 0 mm 1 mps 748 mmHg 88%
    22:00 +16°C° 0 mm 1 mps 749 mmHg 89%
    23:00 +15°C° 0 mm 1 mps 749 mmHg 91%

    20 July, Saturday

    Time Temperature Precipitation Wind Pressure Humidity
    00:00 +15°C° 0 mm 1 mps 749 mmHg 91%
    01:00 +15°C° 0 mm 1 mps 749 mmHg 92%
    02:00 +14°C° 0 mm 1 mps 749 mmHg 92%
    03:00 +14°C° 0 mm 1 mps 749 mmHg 92%
    04:00 +14°C° 0 mm 1 mps 749 mmHg 92%
    05:00 +14°C° 0 mm 1 mps 750 mmHg 92%
    06:00 +16°C° 0 mm 1 mps 750 mmHg 85%
    07:00 +19°C° 0 mm 1 mps 750 mmHg 79%
    08:00 +21°C° 0 mm 1 mps 750 mmHg 72%
    09:00 +21°C° 0 mm 2 mps 750 mmHg 65%
    10:00 +24°C° 0 mm 2 mps 750 mmHg 59%
    11:00 +25°C° 0 mm 2 mps 750 mmHg 52%
    12:00 +26°C° 0 mm 2 mps 750 mmHg 50%
    13:00 +26°C° 0 mm 2 mps 750 mmHg 47%
    14:00 +27°C° 0 mm 2 mps 750 mmHg 45%
    15:00 +26°C° 0 mm 2 mps 750 mmHg 47%
    16:00 +26°C° 0 mm 2 mps 750 mmHg 50%
    17:00 +26°C° 0 mm 2 mps 750 mmHg 52%
    18:00 +24°C° 0 mm 2 mps 750 mmHg 60%
    19:00 +22°C° 0 mm 1 mps 750 mmHg 68%
    20:00 +20°C° 0 mm 1 mps 750 mmHg 75%
    21:00 +19°C° 0 mm 1 mps 751 mmHg 77%
    22:00 +18°C° 0 mm 1 mps 751 mmHg 79%
    23:00 +15°C° 0 mm 0 mps 751 mmHg 81%

    21 July, Sunday

    Time Temperature Precipitation Wind Pressure Humidity
    00:00 +15°C° 0 mm 0 mps 751 mmHg 82%
    01:00 +14°C° 0 mm 0 mps 751 mmHg 82%
    02:00 +14°C° 0 mm 0 mps 751 mmHg 83%
    03:00 +14°C° 0 mm 0 mps 751 mmHg 83%
    04:00 +14°C° 0 mm 0 mps 751 mmHg 83%
    05:00 +14°C° 0 mm 0 mps 752 mmHg 84%
    06:00 +16°C° 0 mm 0 mps 752 mmHg 77%
    07:00 +18°C° 0 mm 0 mps 752 mmHg 71%
    08:00 +21°C° 0 mm 0 mps 752 mmHg 65%
    09:00 +24°C° 0 mm 1 mps 752 mmHg 61%
    10:00 +25°C° 0 mm 1 mps 752 mmHg 57%
    11:00 +27°C° 0 mm 1 mps 753 mmHg 53%
    12:00 +27°C° 0 mm 1 mps 752 mmHg 51%
    13:00 +27°C° 0 mm 2 mps 752 mmHg 50%
    14:00 +28°C° 0 mm 2 mps 752 mmHg 49%
    15:00 +27°C° 0.1 mm 2 mps 752 mmHg 53%
    16:00 +27°C° 0.1 mm 2 mps 752 mmHg 58%
    17:00 +26°C° 0.1 mm 2 mps 752 mmHg 62%
    18:00 +24°C° 0.1 mm 2 mps 752 mmHg 68%
    19:00 +23°C° 0.1 mm 2 mps 752 mmHg 74%
    20:00 +21°C° 0.1 mm 1 mps 752 mmHg 79%
    21:00 +20°C° 0 mm 1 mps 752 mmHg 80%
    22:00 +19°C° 0 mm 1 mps 753 mmHg 81%
    23:00 +18°C° 0 mm 1 mps 753 mmHg 82%
    Show more